Home   Weather   Tegucigalpa   Past weeks

Flag for Honduras Past Weather in Tegucigalpa, Honduras — Yesterday and Last 2 Weeks

Now
66 °F

Partly cloudy.


Feels Like: 66 °F
Forecast: 65 / 83 °F
Wind: No wind

Location: Tegucigalpa Airport

Current Time: Dec 4, 2016 at 2:23:16 am

Latest Report: Dec 4, 2016 at 2:00 am


Visibility: N/A

Pressure: 30.04 "Hg (26.56 "Hg at 1054m altitude)

Humidity: 94%

Dew Point: 64 °F

Location of TegucigalpaLocation

Past Weather in Tegucigalpa — Graph

°F

Tegucigalpa Temperature Yesterday

Maximum temperature yesterday: 84 °F (at 2:00 pm)
Minimum temperature yesterday: 61 °F (at 5:00 am)
Average temperature yesterday: 71 °F

High & Low Weather Summary for the Past Weeks

 TemperatureHumidityPressure
High84 °F (Nov 29, 12:00 pm)100% (Nov 22, 1:00 am)30.18 "Hg (Nov 22, 1:00 am)
Low54 °F (Nov 23, 6:00 am)37% (Nov 30, 1:00 pm)29.92 "Hg (Nov 29, 2:00 pm)
Average69 °F82%30.07 "Hg
* Reported Nov 19 1:00 am — Dec 4 1:00 am, Tegucigalpa, Weather by CustomWeather, © 2016

Note: Actual official high and low records may vary slightly from our data, if they occured in-between our weather recording intervals... More about our weather records

Advertising

Tegucigalpa Weather History for the Previous 24 Hours

Scroll right to see more
 ConditionsComfort  
Time TempWeatherWind HumidityBarometerVisibility
1:00 am
Sun, Dec 4
68 °FPartly cloudy.No wind88%30.04 "HgN/A
12:00 am68 °FPartly cloudy.2 mph88%30.04 "HgN/A
11:00 pm
Sat, Dec 3
68 °FPassing clouds.3 mph88%30.04 "HgN/A
10:00 pm68 °FPassing clouds.3 mph88%30.07 "HgN/A
9:00 pm68 °FPassing clouds.2 mph88%30.07 "HgN/A
8:00 pm68 °FPassing clouds.2 mph88%30.04 "HgN/A
7:00 pm72 °FPassing clouds.5 mph78%30.01 "HgN/A
6:00 pm73 °FPassing clouds.2 mph69%30.01 "HgN/A
5:00 pm79 °FScattered clouds.12 mph58%29.98 "HgN/A
4:00 pm82 °FScattered clouds.5 mph51%29.98 "HgN/A
3:00 pm82 °FPartly sunny.2 mph55%29.98 "HgN/A
2:00 pm84 °FPartly sunny.3 mph55%30.01 "HgN/A
1:00 pm81 °FPartly sunny.3 mph54%30.04 "HgN/A
12:00 pm79 °FPartly sunny.5 mph54%30.07 "HgN/A
11:00 am79 °FScattered clouds.12 mph61%30.09 "HgN/A
10:00 am77 °FScattered clouds.7 mph65%30.12 "HgN/A
9:00 am72 °FScattered clouds.2 mph78%30.12 "HgN/A
8:00 am68 °FScattered clouds.No wind88%30.12 "HgN/A
7:00 am63 °FScattered clouds.No wind100%30.09 "HgN/A
6:00 am61 °FPartly sunny.No wind100%30.09 "HgN/A
5:00 am61 °FPassing clouds.No wind100%30.07 "HgN/A
4:00 am63 °FPassing clouds.No wind100%30.07 "HgN/A
3:00 am63 °FPassing clouds.No wind100%30.07 "HgN/A
2:00 am63 °FPassing clouds.No wind100%30.07 "HgN/A
Weather by CustomWeather, © 2016

See weather overviewHow to use our weather pages